Regional Weather Roundup
Issued by NWS Grand Forks, ND

Home | Current Version | Previous Version | Text Only | Print | Product List | Glossary On
Versions: 1 2 3 4 5 6 7 8 9 10 11 12 13 14 15 16 17 18 19 20 21 22 23 24 25 26 27 28 29 30 31 32 33 34 35 36 37 38 39 40 41 42 43 44 45 46 47 48 49 50
000
ASUS43 KFGF 280031
RWRFGF
PRAIRIE TO PINES  WEATHER ROUNDUP
NATIONAL WEATHER SERVICE EASTERN NORTH DAKOTA/GRAND FORKS ND
700 PM CDT WED MAY 27 2015

 **SATELLITE DATA USED TO AUGMENT SKY COVER AT AUTOMATED STATIONS**
 *****  WEATHER ACROSS EASTERN NORTH DAKOTA  *****

CITY           SKY/WX    TMP DP  RH WIND       PRES   REMARKS
GRAND FORKS    PTSUNNY   76  49  38 N3        29.95S
6HR MIN TEMP:  69; 6HR MAX TEMP:  77;

GRAND FRKS AFB PTSUNNY   74  50  41 N2        29.97S
GRAND FRKS NWS   N/A     73 N/A N/A N3          N/A
DEVILS LAKE    CLOUDY    72  50  46 SE9       29.96F
6HR MIN TEMP:  70; 6HR MAX TEMP:  75;

FARGO          MOSUNNY   80  54  40 NE3       29.94S
WAHPETON ARPT  CLEAR     77  50  38 SE3       29.94S
$$

 ***** WEATHER ACROSS CENTRAL AND WESTERN NORTH DAKOTA  *****

CITY           SKY/WX    TMP DP  RH WIND       PRES   REMARKS
BISMARCK       PTSUNNY   77  48  35 S12       29.90F
6HR MIN TEMP:  77; 6HR MAX TEMP:  82;

MINOT          CLOUDY    73  49  42 E14       29.90F
6HR MIN TEMP:  73; 6HR MAX TEMP:  79;

JAMESTOWN      CLOUDY    75  53  46 NE8       29.93S
6HR MIN TEMP:  70; 6HR MAX TEMP:  81; 6HR PCP:  0.13;

MINOT AFB      CLOUDY    74  51  44 E13       29.89F
GARRISON         N/A     76  45  33 SE7       29.88F
WILLISTON      CLOUDY    62  54  74 S8        29.91F
6HR MIN TEMP:  60; 6HR MAX TEMP:  83; 6HR PCP:  0.38;

DICKINSON      LGT RAIN  57  55  93 NE14      29.91S
6HR MIN TEMP:  57; 6HR MAX TEMP:  79; 6HR PCP:  0.11;

HETTINGER      TSTM      56  54  93 NE7       29.95R FOG
6HR MIN TEMP:  60; 6HR MAX TEMP:  75;

$$

 *****  OTHER AIRPORT OBSERVATIONS IN OUR AREA  *****

CITY           SKY/WX    TMP DP  RH WIND       PRES   REMARKS
WALHALLA         N/A     68  43  40 MISG      29.99S
GRAFTON AIRPOR FAIR      72  46  40 N6        29.98S
VALLEY CITY AR LGT RAIN  64  64 100 E7        29.98R
CANDO          FAIR      73  48  40 SE15      29.97S
CAVALIER APRT  FAIR      68  41  37 NE6       29.99R
GWINNER        NOT AVBL
SHEYENNE NWR     N/A     81  56  42 E2        29.95S
ROLLA          FAIR      70  45  40 SE9       30.00R
 ***** THE ABOVE OBSERVATIONS ARE NON NWS ARE NOT QUALITY
       CONTROLLED AND MAY MIS-REPORT RAIN FOR SNOW...
$$

  *****  WEATHER ACROSS NORTHERN MINNESOTA  *****

CITY           SKY/WX    TMP DP  RH WIND       PRES   REMARKS
FLAG ISLAND    SUNNY     66  45  45 NE10      29.98S
WARROAD        SUNNY     66  52  59 E9        30.00R
ROSEAU         SUNNY     72  48  43 E12       29.98R
HALLOCK        SUNNY     72  45  37 N6        29.97R
THF RVR FALLS  SUNNY     75  48  38 N5        29.97S
6HR MIN TEMP:  72; 6HR MAX TEMP:  75;

BAUDETTE       SUNNY     70  46  42 N7        29.98S
6HR MIN TEMP:  67; 6HR MAX TEMP:  71;

WASKISH        SUNNY     70  52  52 N5        29.98R
CROOKSTON      MOSUNNY   75  52  43 N3        29.96S
STEPHEN NDAWN    N/A     73  48  40 NE6         N/A
GREENBUSH NDAW   N/A     73  46  38 NW5         N/A
$$
  *****  WEATHER ACROSS CENTRAL AND WEST MINNESOTA  *****

CITY           SKY/WX    TMP DP  RH WIND       PRES   REMARKS
FOSSTON        SUNNY     75  50  41 CALM      29.97S
BEMIDJI        SUNNY     76  51  41 N7        29.97R
PARK RAPIDS    SUNNY     80  47  31 NW9       29.96R
6HR MIN TEMP:  80; 6HR MAX TEMP:  84;

ELBOW LAKE     FAIR      79  47  32 CALM      29.96S
6HR MIN TEMP:  74; 6HR MAX TEMP:  80;

WADENA         MOSUNNY   77  54  44 NW5       29.97R
DETROIT LAKES  SUNNY     77  48  36 N3        29.99R
MOORHEAD       MOSUNNY   81  48  32 NE5       29.95S
FERGUS FALLS   SUNNY     81  48  32 CALM      29.95R
MORRIS MN      MOSUNNY   81  46  30 CALM      29.96R
STAPLES        SUNNY     79  45  29 NW7       29.97R
$$
  *****  WEATHER ELSEWHERE ACROSS MINNESOTA  *****

CITY           SKY/WX    TMP DP  RH WIND       PRES   REMARKS
DULUTH         MOSUNNY   79  49  34 N5        29.94R
6HR MIN TEMP:  75; 6HR MAX TEMP:  83; 6HR PCP:  0.01;

INTRNTL FALLS  SUNNY     72  45  37 N8        29.97R
6HR MIN TEMP:  72; 6HR MAX TEMP:  78;

ELY            NOT AVBL
CLOQUET        SUNNY     79  39  24 W7        29.95R
WHEATON        MOSUNNY   79  46  31 CALM      29.96S
BRAINERD       MOSUNNY   76  52  43 S8        29.96R
6HR MIN TEMP:  76; 6HR MAX TEMP:  82;

HIBBING        SUNNY     78  48  34 NW9       29.94R
6HR MIN TEMP:  78; 6HR MAX TEMP:  83;

ALEXANDRIA     SUNNY     80  49  33 W3        29.98S
6HR MIN TEMP:  76; 6HR MAX TEMP:  81;

SAINT CLOUD    SUNNY     80  58  46 NW3       29.95S
6HR MIN TEMP:  78; 6HR MAX TEMP:  84;

MINNEAPOLIS    MOSUNNY   82  52  35 W7        29.95F
6HR MIN TEMP:  76; 6HR MAX TEMP:  84;

$$

  *****  WEATHER ACROSS SOUTH DAKOTA  *****

CITY           SKY/WX    TMP DP  RH WIND       PRES   REMARKS
SIOUX FALLS    PTSUNNY   79  51  37 S8        29.98F
6HR MIN TEMP:  78; 6HR MAX TEMP:  83;

BROOKINGS      PTSUNNY   79  52  38 S5        29.98S
WATERTOWN      PTSUNNY   77  50  38 S6        29.97F
6HR MIN TEMP:  76; 6HR MAX TEMP:  82;

HURON            N/A    N/A N/A N/A MISG      29.95S
SISSETON         N/A     81  47  30 W6        29.94S
ABERDEEN       MOSUNNY   79  49  34 S10       29.93S
6HR MIN TEMP:  79; 6HR MAX TEMP:  85;

MITCHELL       CLOUDY    82  51  34 S9        29.96F
PIERRE         CLOUDY    74  49  41 SE12      29.90F
6HR MIN TEMP:  73; 6HR MAX TEMP:  80; 6HR PCP: TRACE;

MOBRIDGE       CLOUDY    74  50  42 S12       29.91R
RAPID CITY     PTSUNNY   70  55  59 S8        29.90F
6HR MIN TEMP:  66; 6HR MAX TEMP:  74; 6HR PCP: TRACE;

$$

  *****  SOME WEATHER IN NEARBY STATES *****

CITY           SKY/WX    TMP DP  RH WIND       PRES   REMARKS
GLASGOW MT     PTSUNNY   69  53  56 S7        29.88R
6HR MIN TEMP:  65; 6HR MAX TEMP:  73;

GREAT FALLS MT MOSUNNY   64  47  53 NW6       29.96F
6HR MIN TEMP:  54; 6HR MAX TEMP:  65; 6HR PCP: TRACE;

CHEYENNE WY    PTSUNNY   66  45  46 E8        30.04S
6HR MIN TEMP:  58; 6HR MAX TEMP:  68; 6HR PCP: TRACE;

SCOTTSBLUFF NE MOSUNNY   69  55  60 SE18G26   29.98R
6HR MIN TEMP:  53; 6HR MAX TEMP:  71; 6HR PCP:  0.60;

OMAHA NE       PTSUNNY   81  50  33 S10       30.02F
6HR MIN TEMP:  80; 6HR MAX TEMP:  84;

DES MOINES IA  MOSUNNY   80  54  40 SW8       30.03F
6HR MIN TEMP:  78; 6HR MAX TEMP:  82;

DAVENPORT IA   MOSUNNY   77  55  46 W5        30.07S
6HR MIN TEMP:  73; 6HR MAX TEMP:  79;

CHICAGO IL     SUNNY     72  56  57 W5        30.04R
6HR MIN TEMP:  67; 6HR MAX TEMP:  74; 6HR PCP: TRACE;

EAU CLAIRE WI  SUNNY     76  58  53 W6        29.96S
6HR MIN TEMP:  74; 6HR MAX TEMP:  80;

LA CROSSE WI   SUNNY     80  60  50 SW6       29.98S
6HR MIN TEMP:  76; 6HR MAX TEMP:  82;

$$

  *****  SOME NATIONAL WEATHER *****

CITY           SKY/WX    TMP DP  RH WIND       PRES   REMARKS
LA GUARDIA NY  MOCLDY    71  60  68 VRB5      30.13R
6HR MIN TEMP:  71; 6HR MAX TEMP:  81; 6HR PCP: TRACE;

RALEIGH NC     LGT RAIN  73  69  87 CALM      30.20R
6HR MIN TEMP:  73; 6HR MAX TEMP:  87; 6HR PCP:  0.28;

ATLANTA GA     MOCLDY    80  65  59 S5        30.18R
6HR MIN TEMP:  78; 6HR MAX TEMP:  83;

NEW ORLEANS LA PTSUNNY   79  67  66 CALM      30.07R
6HR MIN TEMP:  70; 6HR MAX TEMP:  80; 6HR PCP:  0.01;

OKLAHOMA CITY  PTSUNNY   76  65  68 S10       30.01S
6HR MIN TEMP:  70; 6HR MAX TEMP:  81; 6HR PCP:  0.01;

ALBUQUERQUE NM CLOUDY    77  29  17 SE7       30.05F
6HR MIN TEMP:  72; 6HR MAX TEMP:  79;

SALT LAKE CITY PTSUNNY   69  48  47 N7        30.00F
6HR MIN TEMP:  59; 6HR MAX TEMP:  71;

LOS ANGELES CA MOSUNNY   64  55  72 W16       29.97S



USA.gov is the U.S. government's official web portal to all federal, state and local government web resources and services.